[[{"header":{"parameterUnit":"m.s-1","parameterCategory":2,"la1":30.2991,"la2":30.254,"lo1":-89.0895,"lo2":-89.0444,"dy":0.0017,"dx":0.0017,"nx":28,"ny":28,"refTime":"2023-11-17T03:00:00:Z","depth":"0","parameterNumber":2,"parameterNumberName":"U-component_of_CURRENTS"},"data":[0,0,0,0,0,0,0,0,0,0,0,0,0,0,0,0,0,0,0,0,0,0,0,0,0,0,0,0,0,0,0,0,0,0,0,0,0,0,0,0,0,0,0,0,0,0,0,0,0,0,0,0,0,0,0,0,0,0,-0.2187,-0.2187,0,-0.221,-0.221,-0.221,-0.2182,-0.2181,-0.218,-0.2179,-0.2153,-0.2153,-0.2153,0,0,0,0,0,0,0,0,0,0,0,0,0,-0.2127,-0.2128,-0.2187,-0.2187,-0.2187,-0.221,-0.221,-0.221,-0.2182,-0.2181,-0.218,-0.2179,-0.2153,-0.2153,-0.2153,0,0,0,0,0,0,0,0,0,0,0,0,0,-0.215,-0.2128,-0.2187,-0.2177,-0.2177,-0.221,-0.221,-0.221,-0.2182,-0.2181,-0.2179,-0.2178,-0.2153,-0.2153,-0.2153,-0.2181,0,0,-0.2154,-0.2154,0,0,0,0,0,0,0,0,-0.2149,-0.2152,-0.2178,-0.2178,-0.2177,-0.2193,-0.2179,-0.2198,-0.2182,-0.2178,-0.2179,-0.2177,-0.2164,-0.2163,-0.2169,-0.218,-0.2179,-0.2154,-0.2154,-0.2154,-0.2154,0,0,0,0,0,0,0,-0.2147,-0.2151,-0.2194,-0.2179,-0.2178,-0.2175,-0.2176,-0.2183,-0.2176,-0.2179,-0.2177,-0.2182,-0.2163,-0.2169,-0.2168,-0.2179,-0.2154,-0.2154,-0.2154,-0.2154,-0.2202,-0.2203,0,0,0,0,0,0,-0.2149,-0.215,-0.2193,-0.2195,-0.2161,-0.2177,-0.2179,-0.2188,-0.2177,-0.2175,-0.2184,-0.2181,-0.2169,-0.2167,-0.2167,-0.2187,-0.2154,-0.2154,-0.2154,-0.2201,-0.2202,-0.2203,0,0,0,0,0,0,-0.2147,-0.2153,-0.2193,-0.2174,-0.2178,-0.218,-0.219,-0.2189,-0.2189,-0.2182,-0.2178,-0.2184,-0.2168,-0.2166,-0.2173,-0.2186,-0.2154,-0.2154,-0.2199,-0.2201,-0.2203,-0.2235,0,0,0,0,0,0,-0.2146,-0.2152,-0.2159,-0.2174,-0.218,-0.2213,-0.2192,-0.2191,-0.2196,-0.2193,-0.2182,-0.2178,-0.2167,-0.2173,-0.2174,-0.2185,-0.2155,-0.2198,-0.22,-0.2202,-0.2233,-0.2238,-0.2242,0,0,0,0,0,-0.2144,-0.216,-0.2159,-0.2164,-0.2189,-0.2214,-0.2217,-0.2211,-0.2197,-0.2205,-0.2197,-0.2178,-0.2187,-0.2175,-0.2175,-0.2187,-0.2197,-0.22,-0.2202,-0.2231,-0.2237,-0.2242,0,0,0,0,0,0,-0.2139,-0.216,-0.2158,-0.218,-0.2196,-0.221,-0.2218,-0.2215,-0.2217,-0.2209,-0.2194,-0.2191,-0.2202,-0.2196,-0.2182,-0.2209,-0.2189,-0.2192,-0.2211,-0.2216,-0.2221,-0.2216,-0.2155,0,0,0,0,0,-0.2143,-0.2156,-0.2177,-0.2193,-0.2203,-0.221,-0.2219,-0.2218,-0.2223,-0.2222,-0.2214,-0.2211,-0.2217,-0.2216,-0.2219,-0.2235,-0.2209,-0.2244,-0.2249,-0.2253,-0.225,-0.2233,-0.2235,-0.2212,-0.2212,-0.2212,0,0,-0.2145,-0.2158,-0.2165,-0.2192,-0.2202,-0.2225,-0.2211,-0.2229,-0.2243,-0.222,-0.2231,-0.2228,-0.2226,-0.2242,-0.2247,-0.2234,-0.2244,-0.2256,-0.2259,-0.2254,-0.2235,-0.2237,-0.2239,-0.2214,-0.2213,-0.2213,0,0,-0.2158,-0.2169,-0.2184,-0.2202,-0.2224,-0.2234,-0.224,-0.2256,-0.2257,-0.2275,-0.2262,-0.2265,-0.2275,-0.2273,-0.2275,-0.2311,-0.2272,-0.2315,-0.2331,-0.2315,-0.2316,-0.2316,-0.2273,-0.227,-0.2315,-0.2315,-0.2315,0,-0.216,-0.2181,-0.2193,-0.2217,-0.223,-0.2239,-0.2261,-0.2275,-0.2289,-0.2289,-0.2281,-0.229,-0.2289,-0.2302,-0.2317,-0.232,-0.2294,-0.2307,-0.2319,-0.2319,-0.2319,-0.2275,-0.2271,-0.2317,-0.2316,-0.2316,-0.2316,0,-0.2183,-0.2203,-0.2216,-0.2245,-0.2265,-0.2286,-0.2309,-0.2321,-0.2321,-0.2326,-0.2334,-0.2334,-0.2332,-0.2342,-0.2342,-0.235,-0.2326,-0.2327,-0.2299,-0.2323,-0.2275,-0.227,-0.2319,-0.2319,-0.2318,-0.2318,0,0,-0.2173,-0.2222,-0.2223,-0.2238,-0.2279,-0.2294,-0.2326,-0.2349,-0.2355,-0.2365,-0.2367,-0.2386,-0.2372,-0.2374,-0.237,-0.2363,-0.2346,-0.235,-0.2348,-0.2297,-0.2287,-0.219,-0.2174,-0.2348,-0.2347,-0.2347,-0.2247,0,-0.2182,-0.222,-0.2246,-0.228,-0.2301,-0.2325,-0.2351,-0.2372,-0.2383,-0.2389,-0.2386,-0.239,-0.2389,-0.2385,-0.238,-0.2363,-0.2337,-0.2371,-0.2279,-0.2276,-0.2179,-0.2167,-0.2069,-0.1966,-0.2242,-0.2241,-0.2241,0,-0.2185,-0.2212,-0.2245,-0.2287,-0.2298,-0.2321,-0.2347,-0.2374,-0.2395,-0.24,-0.2402,-0.2398,-0.2397,-0.239,-0.2349,-0.237,-0.2328,-0.2305,-0.2301,-0.2194,-0.217,-0.199,-0.1946,-0.1917,-0.2232,-0.2233,-0.2234,0,-0.2146,-0.2202,-0.2222,-0.224,-0.2297,-0.2309,-0.2334,-0.2365,-0.2376,-0.24,-0.2395,-0.24,-0.238,-0.2356,-0.2308,-0.2331,-0.2242,-0.2265,-0.2126,-0.2118,-0.2007,-0.1989,-0.1914,-0.2213,-0.2214,-0.2214,-0.2214,0,-0.2134,-0.2148,-0.2203,-0.2215,-0.223,-0.2283,-0.2296,-0.2323,-0.2354,-0.2352,-0.2386,-0.2367,-0.2371,-0.2323,-0.2295,-0.2178,-0.2222,-0.2112,-0.2084,-0.2014,-0.1999,-0.1947,-0.1974,-0.221,-0.2211,-0.2212,-0.2212,0,-0.2077,-0.2122,-0.2141,-0.2196,-0.221,-0.2214,-0.2259,-0.2266,-0.2309,-0.2305,-0.2308,-0.2326,-0.2261,-0.2229,-0.2171,-0.2127,-0.2,-0.1994,-0.1896,-0.1857,-0.1713,-0.1745,-0.164,-0.1597,-0.1835,-0.1831,-0.1829,0,-0.2046,-0.205,-0.2096,-0.21,-0.2121,-0.2144,-0.2155,-0.2222,-0.2234,-0.2264,-0.2248,-0.2203,-0.2139,-0.2011,-0.1926,-0.1817,-0.1846,-0.1679,-0.1709,-0.167,-0.1687,-0.1725,-0.1702,-0.1572,-0.1568,-0.1564,-0.1561,0,-0.197,-0.1984,-0.2,-0.2004,-0.2016,-0.2035,-0.2063,-0.2072,-0.214,-0.2124,-0.209,-0.2044,-0.1923,-0.1767,-0.1637,-0.1581,-0.1633,-0.1599,-0.1591,-0.1492,-0.1496,-0.1453,-0.1668,-0.1529,-0.1532,-0.1534,-0.1536,-0.1538,-0.1888,-0.1873,-0.1885,-0.1882,-0.1902,-0.1906,-0.1871,-0.1913,-0.1896,-0.1849,-0.1891,-0.1763,-0.166,-0.1454,-0.1395,-0.1258,-0.1352,-0.1234,-0.1279,-0.1323,-0.1275,-0.1399,-0.1214,-0.1215,-0.1217,-0.1218,-0.1219,0,-0.1764,-0.1762,-0.1757,-0.175,-0.1721,-0.1771,-0.1781,-0.1722,-0.165,-0.1639,-0.1561,-0.1399,-0.1247,-0.1184,-0.1041,-0.097,-0.0984,-0.0963,-0.1016,-0.101,-0.1126,-0.1107,-0.085,-0.085,-0.085,-0.085,-0.085,-0.085,-0.1694,-0.1646,-0.165,-0.1562,-0.1555,-0.1462,-0.1435,-0.1369,-0.1331,-0.1181,-0.1086,-0.1047,-0.1002,-0.099,-0.0885,-0.0842,-0.0852,-0.0802,-0.0858,-0.0966,-0.0997,-0.1026,-0.1012,-0.074,-0.074,-0.0695,-0.0695,-0.0695]},{"header":{"parameterUnit":"m.s-1","parameterCategory":2,"la1":30.2991,"la2":30.254,"lo1":-89.0895,"lo2":-89.0444,"dy":0.0017,"dx":0.0017,"nx":28,"ny":28,"refTime":"2023-11-17T03:00:00:Z","depth":"0","parameterNumber":3,"parameterNumberName":"V-component_of_CURRENTS"},"data":[0,0,0,0,0,0,0,0,0,0,0,0,0,0,0,0,0,0,0,0,0,0,0,0,0,0,0,0,0,0,0,0,0,0,0,0,0,0,0,0,0,0,0,0,0,0,0,0,0,0,0,0,0,0,0,0,0,0,-0.0501,-0.05,0,-0.0416,-0.0415,-0.0414,-0.0355,-0.0354,-0.0354,-0.0354,-0.0242,-0.0239,-0.0236,0,0,0,0,0,0,0,0,0,0,0,0,0,-0.057,-0.0569,-0.0501,-0.05,-0.0499,-0.0416,-0.0415,-0.0414,-0.0355,-0.0354,-0.0354,-0.0353,-0.0242,-0.0239,-0.0236,0,0,0,0,0,0,0,0,0,0,0,0,0,-0.0517,-0.0569,-0.0501,-0.046,-0.0456,-0.0417,-0.0415,-0.0414,-0.0355,-0.0354,-0.0354,-0.0353,-0.0243,-0.024,-0.0236,-0.0223,0,0,-0.0224,-0.0222,0,0,0,0,0,0,0,0,-0.0521,-0.0515,-0.0467,-0.0463,-0.0458,-0.0396,-0.0398,-0.0349,-0.0355,-0.0392,-0.0354,-0.0353,-0.0292,-0.0284,-0.0268,-0.0218,-0.0213,-0.0223,-0.0221,-0.0219,-0.0218,0,0,0,0,0,0,0,-0.0524,-0.0518,-0.0466,-0.0466,-0.046,-0.0432,-0.0424,-0.0389,-0.0345,-0.0389,-0.0385,-0.0377,-0.0289,-0.0272,-0.0265,-0.0212,-0.0224,-0.022,-0.0218,-0.0216,-0.0132,-0.0132,0,0,0,0,0,0,-0.0539,-0.0522,-0.0469,-0.0464,-0.0489,-0.0431,-0.0422,-0.0416,-0.0346,-0.0335,-0.0377,-0.0374,-0.0279,-0.027,-0.0261,-0.024,-0.0219,-0.0216,-0.0213,-0.0132,-0.0132,-0.0132,0,0,0,0,0,0,-0.0541,-0.0535,-0.0473,-0.0491,-0.0482,-0.0431,-0.0424,-0.0415,-0.0398,-0.0338,-0.0326,-0.0371,-0.0279,-0.0267,-0.023,-0.0235,-0.0214,-0.021,-0.0132,-0.0132,-0.0132,-0.0199,0,0,0,0,0,0,-0.0543,-0.0537,-0.0539,-0.0493,-0.0481,-0.0456,-0.0424,-0.0413,-0.0394,-0.0389,-0.0328,-0.0317,-0.0277,-0.0236,-0.0226,-0.0229,-0.0207,-0.0132,-0.0132,-0.0132,-0.0197,-0.0202,-0.0206,0,0,0,0,0,-0.0546,-0.0553,-0.054,-0.0534,-0.0486,-0.0457,-0.0449,-0.041,-0.0395,-0.0392,-0.0348,-0.0319,-0.023,-0.0233,-0.0221,-0.0224,-0.0132,-0.0132,-0.0132,-0.0195,-0.0201,-0.0206,0,0,0,0,0,0,-0.0585,-0.0547,-0.0531,-0.0526,-0.0498,-0.0447,-0.0442,-0.0417,-0.038,-0.0375,-0.0319,-0.0304,-0.0276,-0.024,-0.0245,-0.02,-0.0177,-0.0175,-0.0229,-0.0234,-0.0238,-0.0247,-0.0204,0,0,0,0,0,-0.0596,-0.0592,-0.055,-0.0548,-0.0536,-0.0491,-0.0476,-0.0451,-0.0411,-0.0395,-0.0351,-0.0306,-0.0268,-0.0244,-0.0207,-0.0182,-0.0142,-0.0175,-0.018,-0.0184,-0.0183,-0.0131,-0.013,-0.0133,-0.0133,-0.0133,0,0,-0.0611,-0.059,-0.0587,-0.0556,-0.0531,-0.052,-0.0481,-0.0463,-0.0452,-0.0389,-0.0363,-0.0322,-0.0266,-0.0237,-0.0221,-0.0207,-0.0163,-0.0185,-0.0189,-0.0185,-0.0131,-0.013,-0.013,-0.0134,-0.0134,-0.0133,0,0,-0.0643,-0.0621,-0.0628,-0.0608,-0.0577,-0.0547,-0.0546,-0.05,-0.0477,-0.0449,-0.0401,-0.0362,-0.0307,-0.0264,-0.0236,-0.0242,-0.0192,-0.0234,-0.0259,-0.0208,-0.0208,-0.0207,-0.0161,-0.0155,-0.0233,-0.0233,-0.0233,0,-0.0663,-0.0664,-0.0627,-0.0628,-0.0616,-0.0564,-0.0568,-0.0538,-0.0486,-0.0466,-0.0451,-0.0361,-0.0318,-0.0272,-0.0274,-0.0252,-0.0217,-0.0246,-0.0215,-0.0213,-0.021,-0.0164,-0.0156,-0.0236,-0.0236,-0.0235,-0.0235,0,-0.0696,-0.0697,-0.07,-0.0683,-0.0666,-0.0662,-0.0616,-0.0594,-0.0562,-0.0524,-0.0476,-0.0413,-0.0356,-0.0341,-0.0309,-0.0272,-0.025,-0.0231,-0.0204,-0.0214,-0.0164,-0.0156,-0.0241,-0.0239,-0.0238,-0.0238,0,0,-0.0739,-0.0728,-0.0728,-0.0731,-0.0695,-0.0684,-0.0666,-0.0628,-0.061,-0.0558,-0.0524,-0.0463,-0.0422,-0.0387,-0.0338,-0.0295,-0.0253,-0.0262,-0.0258,-0.0223,-0.0142,-0.0105,-0.0092,-0.0229,-0.0228,-0.0227,-0.0116,0,-0.0776,-0.0802,-0.0776,-0.079,-0.0797,-0.0745,-0.073,-0.0688,-0.0641,-0.0594,-0.0521,-0.0473,-0.044,-0.0411,-0.0364,-0.0273,-0.0232,-0.0284,-0.0132,-0.0128,-0.0098,-0.0081,-0.0051,0.0052,-0.0107,-0.0106,-0.0105,0,-0.0814,-0.0826,-0.0856,-0.0844,-0.0839,-0.0835,-0.0795,-0.0772,-0.0693,-0.0654,-0.059,-0.0523,-0.0443,-0.0419,-0.0278,-0.0313,-0.0239,-0.0174,-0.0168,-0.0102,-0.0074,0.0039,0.0074,0.0164,-0.0091,-0.0092,-0.0093,0,-0.0868,-0.0876,-0.0904,-0.0901,-0.088,-0.0877,-0.0857,-0.0795,-0.0767,-0.0687,-0.0651,-0.0549,-0.0482,-0.0383,-0.0245,-0.0261,-0.0085,-0.0086,0.0016,0.0019,0.0092,0.0099,0.023,0.0004,0.0004,0.0003,0.0003,0,-0.0917,-0.0935,-0.0934,-0.095,-0.0969,-0.093,-0.0924,-0.0888,-0.082,-0.0775,-0.0687,-0.0617,-0.0469,-0.0345,-0.0243,-0.0075,-0.0079,0.002,0.0055,0.0068,0.0073,0.0192,0.0223,0.0008,0.0007,0.0006,0.0005,0,-0.0968,-0.0971,-0.1,-0.0998,-0.0999,-0.101,-0.0976,-0.0962,-0.0896,-0.0831,-0.0804,-0.0652,-0.0483,-0.0332,-0.0142,-0.0059,0.0155,0.0141,0.0145,0.0178,0.0337,0.0362,0.0526,0.0595,0.0265,0.0267,0.0268,0,-0.0996,-0.1019,-0.1044,-0.1064,-0.1066,-0.1071,-0.1069,-0.1013,-0.0983,-0.084,-0.0806,-0.0628,-0.0474,-0.0186,-0.0003,0.0194,0.0251,0.0315,0.0287,0.0363,0.0417,0.042,0.0465,0.0357,0.0359,0.0361,0.0362,0,-0.104,-0.105,-0.1077,-0.1122,-0.114,-0.1145,-0.1132,-0.1112,-0.1017,-0.0935,-0.0773,-0.0634,-0.0341,-0.0074,0.0169,0.0273,0.0387,0.0353,0.0443,0.0512,0.0516,0.0593,0.026,0.0377,0.0375,0.0374,0.0374,0.0373,-0.1064,-0.1098,-0.1134,-0.1172,-0.1196,-0.1198,-0.118,-0.112,-0.1042,-0.0861,-0.0748,-0.0476,-0.0142,0.0223,0.0341,0.0575,0.053,0.0624,0.0652,0.0651,0.0708,0.0401,0.0547,0.0546,0.0546,0.0545,0.0545,0,-0.1088,-0.1125,-0.1172,-0.1215,-0.124,-0.1238,-0.12,-0.1131,-0.1004,-0.0797,-0.0607,-0.0153,0.0162,0.045,0.0761,0.0867,0.0883,0.0909,0.0923,0.096,0.0709,0.0703,0.0877,0.0877,0.0876,0.0876,0.0876,0.0876,-0.1099,-0.1153,-0.1182,-0.1234,-0.1257,-0.1241,-0.1205,-0.1066,-0.0892,-0.053,-0.0213,0.0036,0.0419,0.0841,0.111,0.1125,0.1222,0.1197,0.1258,0.1077,0.1052,0.1028,0.1031,0.127,0.127,0.15,0.1503,0.1504]}],[{"header":{"parameterUnit":"m.s-1","parameterCategory":2,"la1":30.2991,"la2":30.254,"lo1":-89.0895,"lo2":-89.0444,"dy":0.0017,"dx":0.0017,"nx":28,"ny":28,"refTime":"2023-11-17T03:00:00:Z","depth":"2","parameterNumber":2,"parameterNumberName":"U-component_of_CURRENTS"},"data":[0,0,0,0,0,0,0,0,0,0,0,0,0,0,0,0,0,0,0,0,0,0,0,0,0,0,0,0,0,0,0,0,0,0,0,0,0,0,0,0,0,0,0,0,0,0,0,0,0,0,0,0,0,0,0,0,0,0,-0.1946,-0.1947,0,-0.1969,-0.1969,-0.1969,-0.1947,-0.1947,-0.1946,-0.1945,-0.1929,-0.193,-0.193,0,0,0,0,0,0,0,0,0,0,0,0,0,-0.1897,-0.1898,-0.1946,-0.1947,-0.1947,-0.1969,-0.1969,-0.1969,-0.1947,-0.1946,-0.1946,-0.1945,-0.1929,-0.193,-0.193,0,0,0,0,0,0,0,0,0,0,0,0,0,-0.1917,-0.1898,-0.1946,-0.194,-0.1939,-0.1969,-0.1969,-0.1969,-0.1948,-0.1946,-0.1945,-0.1944,-0.1929,-0.193,-0.193,-0.1956,0,0,-0.1931,-0.1932,0,0,0,0,0,0,0,0,-0.1916,-0.1919,-0.194,-0.194,-0.194,-0.1955,-0.1946,-0.1963,-0.1948,-0.1943,-0.1945,-0.1944,-0.1936,-0.1936,-0.1941,-0.1955,-0.1954,-0.1931,-0.1932,-0.1932,-0.1932,0,0,0,0,0,0,0,-0.1915,-0.1918,-0.1954,-0.1941,-0.1941,-0.194,-0.1942,-0.1949,-0.1944,-0.1943,-0.1942,-0.1947,-0.1935,-0.1941,-0.1941,-0.1954,-0.1931,-0.1932,-0.1932,-0.1932,-0.1982,-0.1983,0,0,0,0,0,0,-0.1916,-0.1917,-0.1953,-0.1955,-0.1927,-0.1942,-0.1944,-0.195,-0.1945,-0.1944,-0.1948,-0.1946,-0.1941,-0.194,-0.194,-0.1964,-0.1932,-0.1932,-0.1932,-0.1981,-0.1982,-0.1984,0,0,0,0,0,0,-0.1914,-0.1919,-0.1952,-0.1937,-0.1941,-0.1944,-0.1952,-0.1952,-0.1955,-0.1949,-0.1946,-0.1952,-0.194,-0.194,-0.195,-0.1963,-0.1932,-0.1933,-0.198,-0.1982,-0.1983,-0.2015,0,0,0,0,0,0,-0.1913,-0.1918,-0.1924,-0.1937,-0.1942,-0.1972,-0.1953,-0.1953,-0.1961,-0.1958,-0.1952,-0.1949,-0.1939,-0.1949,-0.195,-0.1963,-0.1933,-0.1979,-0.1981,-0.1982,-0.2013,-0.2018,-0.2022,0,0,0,0,0,-0.1911,-0.1925,-0.1924,-0.1929,-0.195,-0.1973,-0.1976,-0.1972,-0.1962,-0.197,-0.1965,-0.1949,-0.1962,-0.1951,-0.1952,-0.1965,-0.1978,-0.198,-0.1982,-0.2011,-0.2017,-0.2022,0,0,0,0,0,0,-0.1908,-0.1924,-0.1924,-0.1942,-0.1957,-0.1969,-0.1978,-0.1977,-0.1981,-0.1976,-0.1964,-0.1962,-0.1977,-0.1971,-0.1958,-0.1986,-0.1967,-0.197,-0.1989,-0.1994,-0.1999,-0.1993,-0.1934,0,0,0,0,0,-0.1911,-0.1921,-0.194,-0.1954,-0.1963,-0.1971,-0.198,-0.1981,-0.1987,-0.1988,-0.1984,-0.1983,-0.199,-0.1991,-0.1996,-0.2013,-0.1989,-0.2023,-0.2027,-0.2031,-0.2029,-0.2013,-0.2016,-0.1991,-0.1991,-0.1991,0,0,-0.1913,-0.1924,-0.1929,-0.1953,-0.1963,-0.1984,-0.1973,-0.1991,-0.2005,-0.1987,-0.2001,-0.2,-0.1999,-0.2017,-0.2022,-0.2011,-0.2025,-0.2034,-0.2037,-0.2033,-0.2016,-0.2018,-0.202,-0.1993,-0.1993,-0.1992,0,0,-0.1923,-0.1933,-0.1946,-0.1963,-0.1984,-0.1994,-0.2001,-0.2018,-0.2021,-0.2042,-0.2031,-0.2036,-0.2049,-0.2048,-0.2049,-0.2084,-0.2051,-0.209,-0.2106,-0.2092,-0.2093,-0.2094,-0.2057,-0.2055,-0.209,-0.209,-0.209,0,-0.1925,-0.1943,-0.1954,-0.1975,-0.1989,-0.2,-0.202,-0.2035,-0.2052,-0.2054,-0.2049,-0.2062,-0.2063,-0.2076,-0.209,-0.2093,-0.2072,-0.2083,-0.2096,-0.2096,-0.2097,-0.2059,-0.2055,-0.2092,-0.2092,-0.2091,-0.2091,0,-0.1945,-0.1963,-0.1974,-0.2001,-0.2021,-0.204,-0.2064,-0.2079,-0.2084,-0.2091,-0.2103,-0.2104,-0.2105,-0.2115,-0.2115,-0.2125,-0.2104,-0.2103,-0.2077,-0.2101,-0.206,-0.2056,-0.2094,-0.2094,-0.2093,-0.2093,0,0,-0.1932,-0.1978,-0.1979,-0.1994,-0.2033,-0.2048,-0.2081,-0.2105,-0.2115,-0.2129,-0.2135,-0.2154,-0.2143,-0.2145,-0.2143,-0.2138,-0.2126,-0.2126,-0.2125,-0.2082,-0.2076,-0.1987,-0.1973,-0.2127,-0.2127,-0.2127,-0.2042,0,-0.194,-0.1974,-0.1998,-0.2031,-0.205,-0.2077,-0.2103,-0.2127,-0.2142,-0.2153,-0.2153,-0.2161,-0.2159,-0.2158,-0.2154,-0.2141,-0.2118,-0.2147,-0.2067,-0.2064,-0.1975,-0.1967,-0.1833,-0.174,-0.2038,-0.2037,-0.2036,0,-0.194,-0.1965,-0.1997,-0.2037,-0.2048,-0.2071,-0.2102,-0.213,-0.2156,-0.2166,-0.2171,-0.2171,-0.2172,-0.2165,-0.2131,-0.215,-0.2112,-0.2093,-0.2089,-0.1991,-0.1967,-0.1768,-0.1721,-0.2029,-0.203,-0.203,-0.2031,0,-0.1904,-0.1956,-0.1976,-0.1993,-0.2049,-0.2063,-0.2089,-0.2124,-0.2137,-0.2169,-0.2168,-0.2176,-0.2162,-0.214,-0.2098,-0.2118,-0.2043,-0.2061,-0.1935,-0.1928,-0.1789,-0.1769,-0.2016,-0.2016,-0.2016,-0.2016,-0.2017,0,-0.1892,-0.1906,-0.1961,-0.1973,-0.199,-0.2042,-0.2059,-0.2088,-0.2123,-0.2123,-0.2162,-0.2147,-0.2155,-0.2115,-0.2089,-0.1984,-0.2025,-0.1924,-0.1898,-0.1795,-0.1778,-0.2016,-0.2017,-0.2013,-0.2014,-0.2015,-0.2015,0,-0.1841,-0.1884,-0.1903,-0.1958,-0.1972,-0.1979,-0.2026,-0.2036,-0.2083,-0.2083,-0.2089,-0.2112,-0.2058,-0.2033,-0.1984,-0.1942,-0.1877,-0.1823,-0.1689,-0.1649,-0.1776,-0.178,-0.1686,-0.1682,-0.1679,-0.1676,-0.1673,0,-0.1813,-0.1819,-0.1864,-0.1869,-0.1891,-0.1918,-0.1929,-0.1996,-0.2009,-0.2044,-0.2029,-0.1998,-0.1938,-0.1831,-0.1752,-0.1655,-0.1746,-0.1493,-0.151,-0.1756,-0.1741,-0.1751,-0.1759,-0.1335,-0.133,-0.1326,-0.1323,0,-0.1747,-0.1761,-0.1777,-0.1782,-0.1796,-0.1813,-0.184,-0.1848,-0.1915,-0.1902,-0.1873,-0.1833,-0.1731,-0.1567,-0.1457,-0.1403,-0.1509,-0.1407,-0.1685,-0.1445,-0.142,-0.1408,-0.1428,-0.1287,-0.1291,-0.1293,-0.1295,-0.1297,-0.1675,-0.1661,-0.1673,-0.167,-0.169,-0.1689,-0.1653,-0.169,-0.1672,-0.1625,-0.1671,-0.154,-0.1518,-0.1254,-0.1172,-0.1112,-0.1226,-0.1196,-0.1211,-0.1229,-0.1209,-0.118,-0.0998,-0.0999,-0.1001,-0.1002,-0.1004,0,-0.1565,-0.1561,-0.1555,-0.1545,-0.1516,-0.1565,-0.1567,-0.1505,-0.143,-0.1411,-0.1337,-0.114,-0.1013,-0.0993,-0.0829,-0.0805,-0.0829,-0.079,-0.0827,-0.0861,-0.0893,-0.0859,-0.0552,-0.0551,-0.055,-0.0549,0,0,-0.1504,-0.1457,-0.1455,-0.1367,-0.1358,-0.1267,-0.1237,-0.1164,-0.1117,-0.0995,-0.0907,-0.0934,-0.0945,-0.0737,-0.0698,-0.0594,-0.0728,-0.0566,-0.0926,-0.1002,-0.1032,-0.1119,-0.1104,0,0,0,0,0]},{"header":{"parameterUnit":"m.s-1","parameterCategory":2,"la1":30.2991,"la2":30.254,"lo1":-89.0895,"lo2":-89.0444,"dy":0.0017,"dx":0.0017,"nx":28,"ny":28,"refTime":"2023-11-17T03:00:00:Z","depth":"2","parameterNumber":3,"parameterNumberName":"V-component_of_CURRENTS"},"data":[0,0,0,0,0,0,0,0,0,0,0,0,0,0,0,0,0,0,0,0,0,0,0,0,0,0,0,0,0,0,0,0,0,0,0,0,0,0,0,0,0,0,0,0,0,0,0,0,0,0,0,0,0,0,0,0,0,0,-0.0329,-0.0328,0,-0.0254,-0.0253,-0.0252,-0.02,-0.02,-0.0199,-0.0199,-0.0098,-0.0095,-0.0093,0,0,0,0,0,0,0,0,0,0,0,0,0,-0.0389,-0.0388,-0.0329,-0.0328,-0.0327,-0.0254,-0.0253,-0.0252,-0.02,-0.02,-0.0199,-0.0199,-0.0098,-0.0096,-0.0093,0,0,0,0,0,0,0,0,0,0,0,0,0,-0.0342,-0.0388,-0.0329,-0.0293,-0.0289,-0.0254,-0.0253,-0.0251,-0.02,-0.02,-0.0199,-0.0199,-0.0099,-0.0096,-0.0092,-0.0079,0,0,-0.0081,-0.008,0,0,0,0,0,0,0,0,-0.0345,-0.034,-0.0299,-0.0296,-0.0291,-0.0236,-0.0237,-0.0193,-0.02,-0.0233,-0.0199,-0.0199,-0.0143,-0.0135,-0.0121,-0.0075,-0.007,-0.0081,-0.0079,-0.0077,-0.0076,0,0,0,0,0,0,0,-0.0348,-0.0343,-0.0298,-0.0299,-0.0294,-0.0267,-0.0261,-0.0228,-0.019,-0.023,-0.0227,-0.022,-0.014,-0.0125,-0.0119,-0.0069,-0.0081,-0.0078,-0.0076,-0.0074,0.0004,0.0004,0,0,0,0,0,0,-0.0362,-0.0346,-0.0301,-0.0296,-0.0318,-0.0267,-0.0259,-0.0254,-0.0191,-0.0182,-0.022,-0.0217,-0.0132,-0.0123,-0.0115,-0.0093,-0.0077,-0.0074,-0.0072,0.0004,0.0004,0.0004,0,0,0,0,0,0,-0.0363,-0.0359,-0.0304,-0.032,-0.0311,-0.0267,-0.0261,-0.0253,-0.0239,-0.0184,-0.0173,-0.0215,-0.0131,-0.012,-0.0086,-0.0089,-0.0072,-0.0069,0.0004,0.0004,0.0004,-0.0051,0,0,0,0,0,0,-0.0366,-0.036,-0.0363,-0.0321,-0.0311,-0.0289,-0.0261,-0.0252,-0.0235,-0.0231,-0.0176,-0.0166,-0.013,-0.0092,-0.0083,-0.0083,-0.0066,0.0005,0.0004,0.0004,-0.0049,-0.0053,-0.0056,0,0,0,0,0,-0.0368,-0.0374,-0.0363,-0.0358,-0.0316,-0.029,-0.0282,-0.0248,-0.0236,-0.0233,-0.0194,-0.0168,-0.0086,-0.0089,-0.0078,-0.0078,0.0005,0.0004,0.0004,-0.0047,-0.0052,-0.0056,0,0,0,0,0,0,-0.0401,-0.0368,-0.0356,-0.0352,-0.0326,-0.0281,-0.0277,-0.0255,-0.0222,-0.0218,-0.0167,-0.0154,-0.0127,-0.0095,-0.01,-0.0056,-0.0037,-0.0035,-0.008,-0.0084,-0.0088,-0.0096,-0.0063,0,0,0,0,0,-0.0411,-0.0409,-0.0372,-0.037,-0.036,-0.0321,-0.0307,-0.0285,-0.025,-0.0235,-0.0196,-0.0155,-0.012,-0.0097,-0.0064,-0.0038,-0.0003,-0.0031,-0.0035,-0.0038,-0.0037,0.0012,0.0013,0.0004,0.0004,0.0004,0,0,-0.0424,-0.0407,-0.0405,-0.0378,-0.0355,-0.0345,-0.0311,-0.0296,-0.0285,-0.0229,-0.0205,-0.0169,-0.0117,-0.0089,-0.0074,-0.0062,-0.0018,-0.0038,-0.0042,-0.0039,0.0012,0.0013,0.0014,0.0003,0.0003,0.0003,0,0,-0.045,-0.0433,-0.0439,-0.0422,-0.0395,-0.0369,-0.0368,-0.0327,-0.0307,-0.028,-0.0238,-0.0202,-0.0151,-0.011,-0.0084,-0.0087,-0.0043,-0.008,-0.0099,-0.0051,-0.005,-0.0048,-0.001,-0.0004,-0.0077,-0.0077,-0.0077,0,-0.0467,-0.0468,-0.0438,-0.0438,-0.0427,-0.0384,-0.0386,-0.0358,-0.0312,-0.0293,-0.0282,-0.0199,-0.016,-0.0113,-0.0115,-0.0095,-0.0065,-0.0088,-0.0056,-0.0054,-0.0051,-0.0012,-0.0005,-0.008,-0.008,-0.0079,-0.0079,0,-0.0494,-0.0495,-0.0498,-0.0483,-0.0467,-0.0464,-0.0423,-0.0404,-0.0377,-0.0342,-0.0297,-0.024,-0.0189,-0.0173,-0.0144,-0.0106,-0.009,-0.0072,-0.0048,-0.0054,-0.0012,-0.0004,-0.0084,-0.0083,-0.0082,-0.0081,0,0,-0.0529,-0.052,-0.0521,-0.0524,-0.0492,-0.0482,-0.0464,-0.043,-0.0414,-0.0366,-0.0336,-0.0276,-0.0241,-0.0209,-0.0165,-0.0121,-0.0081,-0.0094,-0.0091,-0.0061,0.0018,0.0041,0.0052,-0.0059,-0.0058,-0.0057,0.0038,0,-0.0559,-0.0582,-0.0559,-0.0571,-0.0577,-0.0532,-0.0518,-0.048,-0.0439,-0.0398,-0.033,-0.0288,-0.0255,-0.0232,-0.0184,-0.0103,-0.0062,-0.0109,0.0024,0.0028,0.0046,0.0062,0.0046,0.013,0.0046,0.0047,0.0048,0,-0.059,-0.0602,-0.0627,-0.0618,-0.0614,-0.0611,-0.0577,-0.0556,-0.0486,-0.0453,-0.0394,-0.0336,-0.0261,-0.0238,-0.0106,-0.0138,-0.007,-0.0009,-0.0004,0.0044,0.0066,0.0125,0.0148,0.0062,0.0061,0.006,0.0059,0,-0.0638,-0.0645,-0.067,-0.0667,-0.0649,-0.0648,-0.0633,-0.0578,-0.0555,-0.0485,-0.0458,-0.0361,-0.0304,-0.0209,-0.0083,-0.0094,0.0065,0.0068,0.0153,0.0155,0.0182,0.0185,0.0155,0.0155,0.0154,0.0154,0.0154,0,-0.068,-0.0696,-0.0698,-0.0712,-0.0733,-0.0698,-0.0697,-0.0666,-0.0609,-0.0573,-0.0493,-0.0435,-0.0294,-0.0183,-0.0085,0.0066,0.0067,0.0156,0.0186,0.0162,0.0161,0.0135,0.0131,0.0158,0.0157,0.0156,0.0156,0,-0.0724,-0.0727,-0.0755,-0.0756,-0.0759,-0.0773,-0.0751,-0.0742,-0.0686,-0.0635,-0.0614,-0.0479,-0.0328,-0.0186,-0.0008,0.0071,0.0205,0.0254,0.0212,0.0235,0.026,0.0253,0.0355,0.0357,0.0358,0.0359,0.036,0,-0.0748,-0.077,-0.0797,-0.0818,-0.0822,-0.0834,-0.0838,-0.0792,-0.0771,-0.0651,-0.0626,-0.047,-0.0336,-0.0074,0.0093,0.0274,0.0263,0.0348,0.0325,0.0265,0.0283,0.0273,0.0264,0.0337,0.0338,0.0339,0.0339,0,-0.0789,-0.0799,-0.0825,-0.0874,-0.0896,-0.0908,-0.0906,-0.0894,-0.0815,-0.0748,-0.0612,-0.0491,-0.0234,-0.0012,0.0208,0.03,0.0316,0.0366,0.0336,0.0283,0.0255,0.027,0.0261,0.0345,0.0344,0.0344,0.0344,0.0343,-0.0813,-0.0845,-0.0881,-0.0921,-0.0952,-0.0963,-0.0952,-0.0908,-0.0847,-0.0696,-0.0599,-0.037,-0.0194,0.016,0.0286,0.04,0.0395,0.0418,0.0414,0.0409,0.0384,0.036,0.0464,0.0465,0.0465,0.0465,0.0465,0,-0.0837,-0.0874,-0.092,-0.0966,-0.0997,-0.1,-0.0978,-0.0919,-0.0815,-0.0646,-0.0484,-0.0235,-0.0003,0.0181,0.0377,0.0471,0.0443,0.0472,0.0419,0.0414,0.0409,0.0381,0.0462,0.0463,0.0463,0.0463,0,0,-0.085,-0.0902,-0.0928,-0.0987,-0.1014,-0.1011,-0.0984,-0.0863,-0.0719,-0.0513,-0.0324,-0.0138,0.0071,0.0204,0.0306,0.0404,0.0379,0.04,0.0393,0.0313,0.0307,0.037,0.0321,0,0,0,0,0]}],[{"header":{"parameterUnit":"m.s-1","parameterCategory":2,"la1":30.2991,"la2":30.254,"lo1":-89.0895,"lo2":-89.0444,"dy":0.0017,"dx":0.0017,"nx":28,"ny":28,"refTime":"2023-11-17T03:00:00:Z","depth":"4","parameterNumber":2,"parameterNumberName":"U-component_of_CURRENTS"},"data":[0,0,0,0,0,0,0,0,0,0,0,0,0,0,0,0,0,0,0,0,0,0,0,0,0,0,0,0,0,0,0,0,0,0,0,0,0,0,0,0,0,0,0,0,0,0,0,0,0,0,0,0,0,0,0,0,0,0,-0.1385,-0.1386,0,-0.1434,-0.1434,-0.1435,-0.1461,-0.1461,-0.1461,-0.1461,-0.1504,-0.1505,-0.1506,0,0,0,0,0,0,0,0,0,0,0,0,0,-0.1323,-0.1323,-0.1385,-0.1386,-0.1386,-0.1434,-0.1434,-0.1435,-0.1461,-0.1461,-0.1461,-0.1461,-0.1503,-0.1505,-0.1506,0,0,0,0,0,0,0,0,0,0,0,0,0,-0.1357,-0.1324,-0.1385,-0.1405,-0.1408,-0.1434,-0.1434,-0.1435,-0.1461,-0.1461,-0.1461,-0.1461,-0.1503,-0.1505,-0.1506,-0.1512,0,0,-0.1511,-0.1511,0,0,0,0,0,0,0,0,-0.1355,-0.136,-0.1402,-0.1404,-0.1407,-0.1442,-0.1428,-0.1461,-0.1461,-0.144,-0.1461,-0.1461,-0.1483,-0.1486,-0.1494,-0.1514,-0.1516,-0.1511,-0.1512,-0.1513,-0.1513,0,0,0,0,0,0,0,-0.1353,-0.1358,-0.1403,-0.1402,-0.1406,-0.1416,-0.142,-0.1435,-0.1459,-0.1441,-0.1444,-0.1451,-0.1484,-0.1492,-0.1495,-0.1516,-0.1511,-0.1512,-0.1513,-0.1514,-0.1596,-0.1597,0,0,0,0,0,0,-0.1348,-0.1355,-0.1402,-0.1405,-0.1382,-0.1416,-0.1422,-0.143,-0.1459,-0.1464,-0.145,-0.1452,-0.149,-0.1493,-0.1497,-0.1555,-0.1512,-0.1514,-0.1515,-0.1595,-0.1596,-0.1598,0,0,0,0,0,0,-0.1347,-0.1352,-0.14,-0.1382,-0.1389,-0.1417,-0.1426,-0.1431,-0.1461,-0.1466,-0.1471,-0.1478,-0.149,-0.1494,-0.1531,-0.1554,-0.1515,-0.1516,-0.1593,-0.1595,-0.1597,-0.1638,0,0,0,0,0,0,-0.1345,-0.1351,-0.1368,-0.1382,-0.139,-0.143,-0.1426,-0.1432,-0.1464,-0.1466,-0.1491,-0.1494,-0.149,-0.1529,-0.1532,-0.1556,-0.1517,-0.1592,-0.1594,-0.1597,-0.1635,-0.1642,-0.1647,0,0,0,0,0,-0.1342,-0.136,-0.1368,-0.1375,-0.1407,-0.1431,-0.1437,-0.1456,-0.1465,-0.1483,-0.1502,-0.1494,-0.1546,-0.1531,-0.1535,-0.1559,-0.1591,-0.1594,-0.1596,-0.1633,-0.164,-0.1647,0,0,0,0,0,0,-0.1344,-0.1365,-0.1374,-0.1399,-0.1421,-0.1436,-0.1459,-0.1471,-0.15,-0.151,-0.1512,-0.1516,-0.1556,-0.1555,-0.1538,-0.1591,-0.1567,-0.157,-0.1593,-0.16,-0.1606,-0.1598,-0.1518,0,0,0,0,0,-0.1351,-0.137,-0.139,-0.1413,-0.1426,-0.1448,-0.1465,-0.1479,-0.1501,-0.1515,-0.1532,-0.155,-0.1568,-0.1582,-0.1597,-0.1628,-0.1605,-0.1646,-0.1652,-0.1657,-0.1654,-0.1645,-0.1649,-0.1607,-0.1607,-0.1607,0,0,-0.1359,-0.1373,-0.1386,-0.1415,-0.1435,-0.146,-0.1459,-0.1493,-0.1518,-0.1514,-0.1562,-0.1574,-0.1581,-0.1615,-0.1632,-0.1619,-0.1657,-0.166,-0.1664,-0.1658,-0.1648,-0.1652,-0.1655,-0.1609,-0.1609,-0.1609,0,0,-0.1375,-0.1398,-0.1417,-0.1438,-0.1473,-0.1486,-0.1501,-0.1532,-0.1554,-0.1595,-0.1598,-0.1623,-0.1658,-0.1662,-0.1668,-0.1714,-0.1687,-0.1727,-0.1749,-0.1741,-0.1744,-0.1746,-0.1717,-0.1716,-0.1729,-0.1729,-0.1729,0,-0.1386,-0.1409,-0.1428,-0.1452,-0.1473,-0.15,-0.1527,-0.1553,-0.1594,-0.1609,-0.1619,-0.1664,-0.1675,-0.1699,-0.172,-0.1725,-0.171,-0.1722,-0.1746,-0.1748,-0.175,-0.1719,-0.1718,-0.1731,-0.1731,-0.1731,-0.173,0,-0.1406,-0.1437,-0.1452,-0.1489,-0.1516,-0.1546,-0.1579,-0.1614,-0.1643,-0.166,-0.1701,-0.1716,-0.1736,-0.1751,-0.1753,-0.1775,-0.1757,-0.1753,-0.1725,-0.1756,-0.1722,-0.172,-0.1735,-0.1734,-0.1733,-0.1732,0,0,-0.1393,-0.1454,-0.1462,-0.1485,-0.1539,-0.1558,-0.1608,-0.1646,-0.1673,-0.1715,-0.174,-0.1778,-0.1782,-0.1789,-0.1794,-0.1795,-0.1797,-0.1787,-0.1786,-0.1749,-0.1766,-0.1642,-0.1627,-0.1802,-0.1802,-0.1802,-0.1736,0,-0.1404,-0.1449,-0.148,-0.153,-0.1556,-0.1598,-0.1637,-0.1677,-0.1712,-0.1747,-0.1763,-0.1793,-0.1797,-0.1812,-0.1815,-0.1807,-0.1795,-0.1815,-0.1749,-0.1746,-0.1625,-0.1622,-0.1802,-0.1734,-0.1733,-0.1733,-0.1732,0,-0.1403,-0.1436,-0.1486,-0.1545,-0.156,-0.1598,-0.1655,-0.1695,-0.1744,-0.177,-0.1797,-0.1811,-0.1829,-0.1827,-0.181,-0.1825,-0.1799,-0.1784,-0.1781,-0.1647,-0.1617,-0.1698,-0.1728,-0.1728,-0.1728,-0.1729,-0.1729,0,-0.1363,-0.1434,-0.1473,-0.1496,-0.1571,-0.1605,-0.1645,-0.1702,-0.1727,-0.1785,-0.1798,-0.1824,-0.1829,-0.1818,-0.179,-0.1807,-0.1752,-0.1766,-0.162,-0.161,-0.1725,-0.1723,-0.1737,-0.1737,-0.1737,-0.1737,-0.1737,0,-0.1342,-0.1377,-0.1464,-0.1485,-0.1528,-0.1591,-0.1637,-0.168,-0.1734,-0.1743,-0.1804,-0.1796,-0.183,-0.1803,-0.1784,-0.1678,-0.1739,-0.1609,-0.1582,-0.1744,-0.1745,-0.1722,-0.1722,-0.1735,-0.1735,-0.1736,-0.1736,0,-0.1285,-0.1348,-0.1394,-0.1482,-0.151,-0.154,-0.1618,-0.1638,-0.1707,-0.172,-0.1735,-0.1772,-0.1729,-0.1726,-0.1693,-0.1639,-0.1575,-0.1519,-0.1672,-0.1658,-0.1443,-0.1445,-0.1353,-0.1348,-0.1344,-0.134,-0.1337,0,-0.1255,-0.1277,-0.1372,-0.1395,-0.1439,-0.1499,-0.1526,-0.161,-0.1625,-0.1677,-0.166,-0.1653,-0.1655,-0.1493,-0.1524,-0.1449,-0.1434,-0.1397,-0.144,-0.1419,-0.1402,-0.1412,-0.142,-0.1331,-0.133,-0.1328,-0.1327,0,-0.1189,-0.1236,-0.1272,-0.1317,-0.1358,-0.1394,-0.1443,-0.144,-0.1516,-0.1591,-0.1526,-0.1489,-0.1427,-0.1394,-0.1333,-0.1293,-0.1429,-0.1353,-0.1363,-0.1403,-0.139,-0.138,-0.1393,-0.1313,-0.1315,-0.1316,-0.1317,0,-0.1132,-0.1136,-0.1185,-0.1212,-0.1262,-0.1263,-0.1309,-0.131,-0.1331,-0.1397,-0.1367,-0.1361,-0.1399,-0.1308,-0.126,-0.1201,-0.1192,-0.117,-0.1189,-0.1206,-0.119,-0.1155,-0.0964,0,0,0,0,0,-0.1063,-0.1052,-0.1071,-0.109,-0.1136,-0.1159,-0.1233,-0.1283,-0.1358,-0.1266,-0.1313,-0.1247,-0.1169,-0.1179,-0.1082,-0.1199,-0.1204,-0.1085,-0.1192,-0.1231,-0.1248,-0.1243,0,0,0,0,0,0,-0.1013,-0.1028,-0.1029,-0.098,-0.0968,-0.0997,-0.1039,-0.1097,-0.1061,-0.1142,-0.11,-0.1162,-0.1101,-0.1179,-0.1046,-0.1048,-0.1089,-0.1096,-0.1092,-0.1221,-0.1237,-0.125,-0.1251,0,0,0,0,0]},{"header":{"parameterUnit":"m.s-1","parameterCategory":2,"la1":30.2991,"la2":30.254,"lo1":-89.0895,"lo2":-89.0444,"dy":0.0017,"dx":0.0017,"nx":28,"ny":28,"refTime":"2023-11-17T03:00:00:Z","depth":"4","parameterNumber":3,"parameterNumberName":"V-component_of_CURRENTS"},"data":[0,0,0,0,0,0,0,0,0,0,0,0,0,0,0,0,0,0,0,0,0,0,0,0,0,0,0,0,0,0,0,0,0,0,0,0,0,0,0,0,0,0,0,0,0,0,0,0,0,0,0,0,0,0,0,0,0,0,-0.0221,-0.022,0,-0.0173,-0.0172,-0.0171,-0.0138,-0.0138,-0.0138,-0.0138,-0.0063,-0.0061,-0.0059,0,0,0,0,0,0,0,0,0,0,0,0,0,-0.0253,-0.0253,-0.0221,-0.022,-0.022,-0.0173,-0.0172,-0.0171,-0.0138,-0.0138,-0.0138,-0.0138,-0.0063,-0.0061,-0.0059,0,0,0,0,0,0,0,0,0,0,0,0,0,-0.0225,-0.0253,-0.0221,-0.0198,-0.0196,-0.0173,-0.0172,-0.0171,-0.0138,-0.0138,-0.0138,-0.0138,-0.0064,-0.0061,-0.0058,-0.0046,0,0,-0.005,-0.0049,0,0,0,0,0,0,0,0,-0.0226,-0.0224,-0.0202,-0.02,-0.0197,-0.0162,-0.0156,-0.0128,-0.0139,-0.0159,-0.0138,-0.0138,-0.0094,-0.0089,-0.0079,-0.0043,-0.0039,-0.005,-0.0048,-0.0047,-0.0046,0,0,0,0,0,0,0,-0.0229,-0.0225,-0.0201,-0.0202,-0.0199,-0.018,-0.0176,-0.015,-0.0128,-0.0158,-0.0155,-0.0151,-0.0092,-0.0082,-0.0077,-0.0038,-0.005,-0.0047,-0.0046,-0.0044,0.0017,0.0017,0,0,0,0,0,0,-0.0238,-0.0227,-0.0203,-0.02,-0.0212,-0.018,-0.0175,-0.0173,-0.0128,-0.0122,-0.0152,-0.015,-0.0087,-0.0081,-0.0075,-0.0058,-0.0047,-0.0044,-0.0043,0.0017,0.0017,0.0017,0,0,0,0,0,0,-0.0239,-0.0236,-0.0205,-0.0213,-0.0208,-0.018,-0.0177,-0.0172,-0.0165,-0.0124,-0.0117,-0.0151,-0.0087,-0.0078,-0.0054,-0.0055,-0.0043,-0.004,0.0017,0.0017,0.0017,-0.0024,0,0,0,0,0,0,-0.024,-0.0237,-0.0242,-0.0214,-0.0207,-0.0197,-0.0177,-0.0171,-0.0163,-0.0161,-0.0121,-0.0113,-0.0086,-0.0058,-0.0051,-0.0051,-0.0038,0.0017,0.0017,0.0017,-0.0023,-0.0026,-0.0028,0,0,0,0,0,-0.0241,-0.0248,-0.0243,-0.024,-0.0214,-0.0197,-0.0192,-0.0171,-0.0164,-0.0163,-0.0135,-0.0115,-0.0054,-0.0056,-0.0048,-0.0046,0.0017,0.0017,0.0017,-0.0022,-0.0025,-0.0028,0,0,0,0,0,0,-0.0263,-0.0245,-0.0238,-0.0239,-0.0223,-0.0192,-0.0191,-0.0177,-0.0154,-0.0153,-0.0114,-0.0105,-0.0086,-0.0061,-0.0064,-0.0029,-0.0015,-0.0014,-0.0047,-0.005,-0.0053,-0.006,-0.0036,0,0,0,0,0,-0.0272,-0.0274,-0.025,-0.0253,-0.0247,-0.0221,-0.0213,-0.0199,-0.0175,-0.0165,-0.0137,-0.0106,-0.0079,-0.0061,-0.0037,-0.0015,0.0012,-0.0009,-0.0012,-0.0014,-0.0014,0.0028,0.0029,0.0016,0.0016,0.0016,0,0,-0.0281,-0.0273,-0.0274,-0.0258,-0.0245,-0.0239,-0.0216,-0.0208,-0.0201,-0.016,-0.0144,-0.0118,-0.0077,-0.0055,-0.0044,-0.0033,0.0002,-0.0014,-0.0017,-0.0015,0.0028,0.0029,0.003,0.0016,0.0016,0.0016,0,0,-0.0301,-0.0294,-0.0301,-0.0291,-0.0276,-0.0258,-0.0259,-0.0232,-0.0219,-0.0201,-0.017,-0.0143,-0.0105,-0.0071,-0.005,-0.0051,-0.0018,-0.0047,-0.0059,-0.0019,-0.0017,-0.0016,0.0014,0.0018,-0.0042,-0.0043,-0.0043,0,-0.0314,-0.0318,-0.03,-0.0303,-0.0298,-0.027,-0.0274,-0.0255,-0.0223,-0.0211,-0.0204,-0.0142,-0.011,-0.0072,-0.0072,-0.0057,-0.0033,-0.0051,-0.0022,-0.002,-0.0017,0.0012,0.0018,-0.0045,-0.0044,-0.0044,-0.0044,0,-0.0333,-0.0339,-0.0342,-0.0336,-0.0328,-0.0328,-0.0301,-0.029,-0.0273,-0.0249,-0.0217,-0.0171,-0.0133,-0.0118,-0.0095,-0.0062,-0.0051,-0.0036,-0.0016,-0.0019,0.0013,0.0019,-0.0047,-0.0047,-0.0046,-0.0046,0,0,-0.0355,-0.0357,-0.0359,-0.0365,-0.0348,-0.0343,-0.0332,-0.031,-0.0303,-0.0267,-0.0247,-0.0198,-0.0172,-0.0147,-0.011,-0.0072,-0.0037,-0.005,-0.0047,-0.0025,0.0045,0.0034,0.0041,-0.0017,-0.0016,-0.0015,0.0057,0,-0.0377,-0.0398,-0.0386,-0.0401,-0.0408,-0.0381,-0.0373,-0.0349,-0.0323,-0.0296,-0.024,-0.0212,-0.0182,-0.0166,-0.0122,-0.0057,-0.0021,-0.0058,0.0048,0.0051,0.0039,0.0048,-0.0011,0.0062,0.0064,0.0065,0.0066,0,-0.0396,-0.041,-0.0435,-0.0438,-0.0438,-0.0442,-0.0427,-0.0414,-0.0365,-0.0343,-0.0298,-0.0255,-0.0192,-0.0171,-0.0059,-0.0086,-0.0028,0.0023,0.0027,0.0037,0.0053,0.0069,0.0078,0.0077,0.0076,0.0075,0.0075,0,-0.0426,-0.0441,-0.0467,-0.0468,-0.0466,-0.0473,-0.0468,-0.0434,-0.0422,-0.0374,-0.0358,-0.0277,-0.0235,-0.0151,-0.0048,-0.0054,0.0075,0.0083,0.0129,0.0129,0.0134,0.0132,0.0158,0.0158,0.0158,0.0157,0.0157,0,-0.045,-0.0469,-0.0489,-0.0504,-0.0532,-0.0513,-0.0526,-0.0507,-0.0473,-0.0452,-0.0389,-0.0348,-0.0228,-0.0139,-0.0052,0.0059,0.0074,0.0128,0.015,0.0114,0.0109,0.0139,0.0136,0.016,0.016,0.0159,0.0159,0,-0.0472,-0.0486,-0.0519,-0.0538,-0.0549,-0.057,-0.0575,-0.0575,-0.0541,-0.0511,-0.0497,-0.0393,-0.0275,-0.0156,-0.0007,0.0052,0.0159,0.0193,0.0142,0.0159,0.0184,0.0178,0.0247,0.0247,0.0247,0.0248,0.0248,0,-0.0484,-0.0505,-0.0553,-0.0581,-0.0596,-0.0623,-0.0638,-0.0616,-0.0607,-0.0531,-0.0512,-0.0399,-0.0318,-0.0108,0.0006,0.0165,0.0185,0.0227,0.0208,0.0181,0.0195,0.0189,0.0182,0.0248,0.0248,0.0248,0.0248,0,-0.0503,-0.0526,-0.0556,-0.0617,-0.0652,-0.0679,-0.0695,-0.0687,-0.0641,-0.0619,-0.0503,-0.0389,-0.0252,-0.0098,0.0025,0.0138,0.0191,0.023,0.023,0.0212,0.0184,0.0196,0.0189,0.0249,0.0249,0.0249,0.0249,0,-0.0517,-0.0548,-0.0593,-0.064,-0.0691,-0.0711,-0.0716,-0.0682,-0.0659,-0.0566,-0.0526,-0.0372,-0.0278,-0.0111,0.0004,0.011,0.0131,0.0151,0.0156,0.0156,0.0103,0.0052,0.0098,0,0,0,0,0,-0.0524,-0.0559,-0.0608,-0.0661,-0.0709,-0.0729,-0.0739,-0.0728,-0.0685,-0.0604,-0.0558,-0.0424,-0.0229,-0.0141,-0.0034,-0.0014,0.0128,0.011,0.0148,0.0254,0.0253,0.0205,0,0,0,0,0,0,-0.053,-0.0582,-0.0607,-0.0663,-0.0695,-0.0737,-0.0739,-0.071,-0.0652,-0.0593,-0.0481,-0.0417,-0.0226,-0.0285,-0.0036,-0.0005,0.0028,0.0203,0.0205,0.0255,0.0254,0.0253,0.0203,0,0,0,0,0]}]]